Location: Follega
(52.8850°N, 5.7362°E)
Time: 23:35:28
(UTC+00:00)

ERS-1 Rocket - Pass Details

Date: 09 October 2020
Orbit: 753 x 757 km, 98.5° (Epoch: 24 October)

Event Time Altitude Azimuth Distance (km) Brightness Sun altitude
Exits shadow 21:58:17 17° 323° (NW) 1,850 5.5 -40.6°
Drops below altitude 10° 21:59:35 10° 331° (NNW) 2,299 6.1 -40.7°
Sets 22:02:04 0° 340° (NNW) 3,229 7.1 -40.9°
